Regional Weather Roundup
Issued by NWS

Home | Current Version | Previous Version | Graphics & Text | Print | Product List | Glossary On
Versions: 1 2 3 4 5 6 7 8 9 10 11 12 13 14 15 16 17 18 19 20 21 22 23 24 25 26 27 28 29 30 31 32 33 34 35 36 37 38 39 40 41 42 43 44 45 46 47 48 49 50
000
ASUS43 KTOP 301859
RWRKS

WEATHER ROUNDUP FOR KANSAS
NATIONAL WEATHER SERVICE GOODLAND KS
200 PM CDT SUN APR 30 2017

NOTE:  "FAIR" INDICATES FEW OR NO CLOUDS BELOW 12,000 FEET WITH NO
SIGNIFICANT WEATHER AND/OR OBSTRUCTIONS TO VISIBILITY.

KSZ001>006-013>018-027>032-041>047-302000-
NORTHWEST KANSAS

CITY           SKY/WX    TMP DP  RH WIND       PRES   REMARKS
GOODLAND       LGT SNOW  33  29  85 N29G45    29.76F FOG     WCI  19
HAYS           LGT RAIN  38  36  92 N24G37    29.54F FOG     WCI  27
HILL CITY      LGT SNOW  34  34 100 N29G36    29.64S FOG     WCI  20
RUSSELL        LGT RAIN  40  39  97 N24G31    29.51R FOG     WCI  29
$$

KSZ061>065-074>080-084>089-302000-
SOUTHWEST KANSAS

CITY           SKY/WX    TMP DP  RH WIND       PRES   REMARKS
DODGE CITY     LGT SNOW  34  32  92 N30G45    29.55S FOG     WCI  20
ELKHART          N/A    N/A N/A N/A MISG        N/A
GREAT BEND     LGT RAIN  41  39  93 N21G31    29.49R
LIBERAL          N/A     34  32  92 MISG        N/A
$$

KSZ066>073-081>083-090>101-302000-
SOUTHEAST KANSAS

CITY           SKY/WX    TMP DP  RH WIND       PRES   REMARKS
CHANUTE        CLOUDY    52  41  66 S22G36    29.51R
COFFEYVILLE    PTSUNNY   55  42  61 S23G31    29.52S
HUTCHINSON     LGT RAIN  47  43  86 SE8       29.43S
MEDICINE LODGE   N/A    N/A N/A N/A NW15G22   29.39F
NEWTON         CLOUDY    46  42  86 S18       29.44S
PARSONS        CLOUDY    51  40  65 S15G25    29.53R
WICHITA INTL   CLOUDY    44  41  89 S10       29.44F
WICHITA JABRA  CLOUDY    44  41  89 S13       29.45R
WINFIELD       CLOUDY    48  40  73 SW18G26   29.47F
$$

KSZ007>012-019>026-033>040-048>060-102>105-302000-
NORTHEAST KANSAS

CITY           SKY/WX    TMP DP  RH WIND       PRES   REMARKS
CONCORDIA      LGT RAIN  43  42  97 NE20G30   29.50S FOG
EMPORIA        CLOUDY    50  48  93 S17G24    29.46S
LAWRENCE       CLOUDY    59  52  77 S17G26    29.48F
MANHATTAN      LGT RAIN  52  49  89 NE5       29.44F
OLATHE IND     PTSUNNY   55  48  77 S18G26    29.50S
OLATHE EXE     MOSUNNY   56  49  77 S18G28    29.49F
SALINA         LGT RAIN  49  47  93 N17       29.45F FOG
TOPEKA BILLARD PTSUNNY   59  51  75 SE12      29.45F
TOPEKA FORBES  PTSUNNY   60  48  64 S16G26    29.45F
$$



USA.gov is the U.S. government's official web portal to all federal, state and local government web resources and services.